Location: Newark
(42.7336°N, 84.5467°W)
Time: 04:28:57
(UTC+00:00)

X-37B - Visible Passes

Search period start: 25 September 2020 00:00
Search period end: 05 October 2020 00:00
Orbit: 386 x 387 km, 45.0° (Epoch: 18 September)

Date Brightness Start Highest point End Pass type
(mag) Time Alt. Az. Time Alt. Az. Time Alt. Az.
02 Oct 2.2 00:41:24 10° SSW 00:43:20 21° SSE 00:43:20 21° SSE visible
02 Oct 2.8 23:44:03 10° S 23:45:36 13° SE 23:47:10 10° ESE visible
03 Oct 2.6 01:18:38 10° WSW 01:20:04 24° SW 01:20:04 24° SW visible
04 Oct 1.3 00:20:18 10° SW 00:23:17 38° SSE 00:24:23 27° ESE visible
04 Oct 4.1 01:56:40 10° W 01:56:40 10° W 01:56:40 10° W visible
